Weather History for Corpus Christi, TX

Change the Weather History Date:

Sunday, April 10, 2011

  Actual Average Record
Temperature  
Mean Temperature 80 °F 71 °F  
Max Temperature 87 °F 81 °F 92 °F (1984)
Min Temperature 72 °F 62 °F 41 °F (2003)
Degree Days  
Heating Degree Days 0 1  
Month to date heating degree days 1 10  
Since 1 July heating degree days 934 891  
Cooling Degree Days 15 7  
Month to date cooling degree days 106 64  
Year to date cooling degree days 372 255  
Growing Degree Days 28 (Base 50)    
Moisture  
Dew Point 70 °F    
Average Humidity 74    
Maximum Humidity 87    
Minimum Humidity 61    
Precipitation  
Precipitation 0.00 in 0.06 in 1.46 in (1985)
Month to date precipitation 0.00 0.54  
Year to date precipitation 4.43 5.90  
Snow  
Snow 0.00 in - - ()
Month to date snowfall 0.0  
Since 1 July snowfall 0.0  
Snow Depth 0.00 in    
Sea Level Pressure  
Sea Level Pressure 29.82 in    
Wind  
Wind Speed 20 mph (SSE)    
Max Wind Speed 30 mph    
Max Gust Speed 44 mph    
Visibility 10 miles    
Events      
T = Trace of Precipitation, MM = Missing Value Source: NWS Daily Summary

Daily Weather History Graph

Daily Weather History Graph

Search for Another Location

Airport:

Trip Planner

Search our weather history database for the weather conditions in past years. The results will help you decide how hot, cold, wet, or windy it might be!

Date:

Astronomy

Apr. 10, 2011 Rise Set
Actual Time 7:10 AM CDT 7:52 PM CDT
Civil Twilight 6:47 AM CDT 8:16 PM CDT
Nautical Twilight 6:19 AM CDT 8:44 PM CDT
Astronomical Twilight 5:50 AM CDT 9:12 PM CDT
Moon 12:14 PM CDT (4/10) 1:29 AM CDT (4/10)
Length of Visible Light 13h 29m
Length of Day
12h 41m
Waxing Crescent, 42% of the Moon is Illuminated
Apr 10
Waxing Crescent
Apr 11
First Quarter
Apr 17
Full
Apr 24
Last Quarter
May 3
New

Hourly Weather History & Observations

Time (CDT) Temp. Heat Index Dew Point Humidity Pressure Visibility Wind Dir Wind Speed Gust Speed Precip Events Conditions
12:21 AM 75.2 °F - 71.6 °F 89% 29.88 in 10.0 mi SSE 18.4 mph 27.6 mph N/A   Mostly Cloudy
12:42 AM 75.2 °F - 71.6 °F 89% 29.88 in 10.0 mi SSE 19.6 mph 26.5 mph N/A   Mostly Cloudy
12:51 AM 75.0 °F - 71.1 °F 87% 29.87 in 10.0 mi SSE 15.0 mph 26.5 mph N/A   Mostly Cloudy
1:51 AM 75.0 °F - 70.0 °F 84% 29.87 in 10.0 mi South 15.0 mph 26.5 mph N/A   Mostly Cloudy
2:48 AM 73.4 °F - 69.8 °F 88% 29.86 in 10.0 mi SSE 15.0 mph 24.2 mph N/A   Overcast
2:51 AM 73.9 °F - 70.0 °F 87% 29.86 in 10.0 mi SSE 16.1 mph 23.0 mph N/A   Overcast
3:51 AM 73.9 °F - 69.1 °F 85% 29.84 in 10.0 mi SSE 19.6 mph 25.3 mph N/A   Mostly Cloudy
4:51 AM 73.9 °F - 69.1 °F 85% 29.84 in 10.0 mi SSE 16.1 mph 23.0 mph N/A   Overcast
5:45 AM 73.4 °F - 69.8 °F 88% 29.84 in 10.0 mi SSE 13.8 mph - N/A   Scattered Clouds
5:51 AM 73.0 °F - 69.1 °F 87% 29.84 in 10.0 mi SSE 13.8 mph - N/A   Scattered Clouds
6:20 AM 71.6 °F - 69.8 °F 94% 29.85 in 10.0 mi SSE 12.7 mph - N/A   Mostly Cloudy
6:37 AM 71.6 °F - 69.8 °F 94% 29.85 in 9.0 mi SSE 13.8 mph - N/A   Mostly Cloudy
6:51 AM 73.0 °F - 69.1 °F 87% 29.86 in 9.0 mi SSE 15.0 mph 20.7 mph N/A   Mostly Cloudy
7:22 AM 73.4 °F - 69.8 °F 88% 29.86 in 8.0 mi SSE 17.3 mph 24.2 mph N/A   Scattered Clouds
7:51 AM 73.0 °F - 69.1 °F 87% 29.86 in 9.0 mi SSE 15.0 mph 25.3 mph N/A   Scattered Clouds
8:51 AM 77.0 °F - 69.1 °F 76% 29.87 in 9.0 mi South 19.6 mph 29.9 mph N/A   Scattered Clouds
9:17 AM 77.0 °F - 69.8 °F 78% 29.88 in 9.0 mi South 18.4 mph 32.2 mph N/A   Mostly Cloudy
9:51 AM 78.1 °F - 69.1 °F 74% 29.88 in 10.0 mi SSE 23.0 mph 32.2 mph N/A   Mostly Cloudy
10:08 AM 80.6 °F 83.9 °F 69.8 °F 70% 29.88 in 10.0 mi South 23.0 mph 29.9 mph N/A   Scattered Clouds
10:51 AM 82.9 °F 86.5 °F 69.1 °F 63% 29.86 in 10.0 mi SSE 23.0 mph 33.4 mph N/A   Scattered Clouds
11:51 AM 82.0 °F 85.9 °F 70.0 °F 67% 29.86 in 10.0 mi SSE 24.2 mph 34.5 mph N/A   Mostly Cloudy
12:29 PM 84.2 °F 88.4 °F 69.8 °F 62% 29.85 in 10.0 mi SSE 24.2 mph 34.5 mph N/A   Scattered Clouds
12:51 PM 84.9 °F 89.4 °F 70.0 °F 61% 29.83 in 10.0 mi SSE 25.3 mph 34.5 mph N/A   Scattered Clouds
1:51 PM 86.0 °F 91.5 °F 71.1 °F 61% 29.80 in 10.0 mi SSE 23.0 mph 34.5 mph N/A   Scattered Clouds
2:51 PM 86.0 °F 92.2 °F 72.0 °F 63% 29.77 in 10.0 mi SSE 19.6 mph 36.8 mph N/A   Partly Cloudy
3:51 PM 86.0 °F 91.5 °F 71.1 °F 61% 29.74 in 10.0 mi SSE 20.7 mph 43.7 mph N/A   Clear
4:51 PM 84.9 °F 90.1 °F 71.1 °F 63% 29.72 in 10.0 mi SSE 24.2 mph 41.4 mph N/A   Clear
5:51 PM 82.0 °F 86.3 °F 71.1 °F 69% 29.72 in 10.0 mi SE 25.3 mph 33.4 mph N/A   Partly Cloudy
6:51 PM 79.0 °F - 72.0 °F 79% 29.70 in 10.0 mi SSE 25.3 mph 34.5 mph N/A   Partly Cloudy
7:25 PM 78.8 °F - 71.6 °F 78% 29.72 in 9.0 mi SSE 25.3 mph 38.0 mph N/A   Mostly Cloudy
7:51 PM 77.0 °F - 72.0 °F 84% 29.72 in 8.0 mi SSE 23.0 mph 36.8 mph N/A   Mostly Cloudy
8:51 PM 77.0 °F - 72.0 °F 84% 29.75 in 9.0 mi SSE 20.7 mph 32.2 mph N/A   Mostly Cloudy
9:51 PM 77.0 °F - 71.1 °F 82% 29.78 in 9.0 mi South 21.9 mph 29.9 mph N/A   Mostly Cloudy
10:51 PM 75.9 °F - 71.1 °F 85% 29.80 in 7.0 mi SSE 15.0 mph 27.6 mph N/A   Mostly Cloudy
11:51 PM 75.9 °F - 71.1 °F 85% 29.79 in 9.0 mi SSE 18.4 mph 28.8 mph N/A   Mostly Cloudy